[[{"header":{"parameterUnit":"m.s-1","parameterCategory":2,"la1":30.2991,"la2":30.254,"lo1":-89.0895,"lo2":-89.0444,"dy":0.0017,"dx":0.0017,"nx":28,"ny":28,"refTime":"2025-03-15T03:00:00:Z","depth":"0","parameterNumber":2,"parameterNumberName":"U-component_of_CURRENTS"},"data":[0,0,0,0,0,0,0,0,0,0,0,0,0,0,0,0,0,0,0,0,0,0,0,0,0,0,0,0,0,0,0,0,0,0,0,0,0,0,0,0,0,0,0,0,0,0,0,0,0,0,0,0,0,0,0,0,0,0,0.3038,0.3038,0,0.3003,0.3002,0.3002,0.2924,0.2923,0.2921,0.292,0.2874,0.2874,0.2874,0,0,0,0,0,0,0,0,0,0,0,0,0,0.3051,0.3051,0.3038,0.3038,0.3037,0.3003,0.3002,0.3002,0.2925,0.2923,0.2921,0.2919,0.2874,0.2874,0.2874,0,0,0,0,0,0,0,0,0,0,0,0,0,0.3034,0.3051,0.3038,0.2994,0.299,0.3003,0.3002,0.3002,0.2925,0.2923,0.292,0.2918,0.2874,0.2874,0.2874,0.2925,0,0,0.2876,0.2876,0,0,0,0,0,0,0,0,0.3035,0.3033,0.3001,0.2997,0.2993,0.2965,0.299,0.2975,0.2926,0.295,0.292,0.2917,0.2905,0.2903,0.2902,0.2923,0.2921,0.2876,0.2876,0.2876,0.2876,0,0,0,0,0,0,0,0.3036,0.3035,0.3024,0.3001,0.2996,0.2981,0.2976,0.2987,0.2941,0.2948,0.2942,0.2939,0.2902,0.2902,0.29,0.292,0.2876,0.2876,0.2876,0.2876,0.304,0.3044,0,0,0,0,0,0,0.3043,0.3036,0.3025,0.3023,0.3008,0.2983,0.2977,0.2977,0.2941,0.2934,0.2941,0.2935,0.2902,0.29,0.2898,0.3006,0.2876,0.2877,0.2877,0.3036,0.3041,0.3045,0,0,0,0,0,0,0.3043,0.3042,0.3027,0.3028,0.3025,0.2985,0.2985,0.2977,0.2987,0.2936,0.2927,0.2959,0.29,0.2898,0.2947,0.3001,0.2877,0.2877,0.3031,0.3037,0.3043,0.3189,0,0,0,0,0,0,0.3044,0.3043,0.3069,0.3029,0.3025,0.3085,0.2987,0.2978,0.2987,0.298,0.295,0.2942,0.2898,0.2947,0.2947,0.2999,0.2877,0.3026,0.3034,0.3041,0.3179,0.3199,0.3217,0,0,0,0,0,0.3044,0.3097,0.307,0.307,0.3054,0.3089,0.3089,0.3049,0.2991,0.304,0.3007,0.2943,0.2995,0.2951,0.295,0.3004,0.3022,0.3031,0.304,0.317,0.3195,0.3216,0,0,0,0,0,0,0.3127,0.3093,0.3063,0.3104,0.3115,0.3077,0.3115,0.3073,0.3083,0.3068,0.3,0.2995,0.3058,0.3027,0.2979,0.3078,0.2998,0.3007,0.3097,0.312,0.3138,0.3133,0.2878,0,0,0,0,0,0.3155,0.3176,0.3152,0.319,0.3201,0.3159,0.3169,0.3141,0.313,0.313,0.31,0.3082,0.3099,0.3103,0.3115,0.3173,0.315,0.3209,0.3228,0.3244,0.3244,0.3283,0.3304,0.3075,0.3075,0.3075,0,0,0.3192,0.318,0.319,0.3209,0.3204,0.3238,0.3162,0.3196,0.3212,0.3128,0.3161,0.3156,0.3134,0.3197,0.3221,0.3173,0.3304,0.3256,0.3269,0.326,0.3295,0.3316,0.3336,0.3082,0.3081,0.308,0,0,0.3263,0.3276,0.3304,0.3329,0.3338,0.3327,0.3344,0.3327,0.3319,0.3361,0.3302,0.3338,0.3348,0.3347,0.3343,0.3481,0.341,0.3486,0.3565,0.3605,0.3623,0.3638,0.3655,0.3671,0.3485,0.3486,0.3486,0,0.3311,0.3325,0.333,0.3369,0.339,0.337,0.341,0.3422,0.3419,0.3423,0.3397,0.3431,0.3418,0.3477,0.3522,0.3521,0.352,0.3474,0.3627,0.3641,0.3655,0.3668,0.3684,0.3494,0.3493,0.3492,0.3491,0,0.3372,0.3406,0.3443,0.3467,0.3516,0.356,0.357,0.3605,0.3586,0.3573,0.3636,0.3635,0.3641,0.3663,0.363,0.3725,0.3688,0.3651,0.356,0.3686,0.3693,0.3706,0.3506,0.3503,0.35,0.3498,0,0,0.3393,0.3464,0.3472,0.3487,0.3563,0.359,0.3668,0.3708,0.372,0.3759,0.3787,0.3845,0.3826,0.3824,0.3804,0.3844,0.3949,0.3792,0.3791,0.3793,0.4027,0.3903,0.3904,0.3936,0.3939,0.3941,0.3999,0,0.3424,0.3485,0.3532,0.3606,0.3634,0.3684,0.3743,0.3788,0.3819,0.3859,0.3884,0.3916,0.3892,0.3898,0.3947,0.3947,0.3989,0.3936,0.3917,0.3916,0.3777,0.3918,0.3787,0.3819,0.4011,0.4013,0.4015,0,0.3426,0.3469,0.3532,0.3617,0.3638,0.3689,0.3765,0.3825,0.3904,0.3926,0.399,0.4001,0.4084,0.4033,0.4116,0.4083,0.4071,0.4068,0.407,0.3904,0.3817,0.3723,0.3835,0.3818,0.4035,0.4033,0.4032,0,0.335,0.3458,0.3495,0.353,0.3636,0.367,0.3734,0.3824,0.3878,0.3972,0.4014,0.4101,0.4138,0.4176,0.4187,0.4157,0.4261,0.4207,0.4087,0.4077,0.3935,0.3906,0.4007,0.4263,0.4263,0.4263,0.4263,0,0.3321,0.3349,0.345,0.3464,0.3513,0.3616,0.3684,0.3749,0.3871,0.3927,0.4032,0.4086,0.4177,0.424,0.4237,0.4214,0.4302,0.4126,0.4097,0.3984,0.396,0.3907,0.3892,0.4265,0.4264,0.4264,0.4264,0,0.3211,0.3279,0.3319,0.3429,0.3465,0.3493,0.3653,0.3692,0.3825,0.3911,0.3948,0.4104,0.4178,0.4253,0.4313,0.4252,0.4147,0.421,0.4063,0.4013,0.3829,0.3826,0.3665,0.3561,0.4082,0.4079,0.4077,0,0.3153,0.3159,0.3262,0.328,0.3326,0.3407,0.345,0.3623,0.3687,0.3892,0.3911,0.4055,0.411,0.4191,0.4137,0.4127,0.4064,0.3965,0.3872,0.3827,0.3805,0.3648,0.3562,0.376,0.3756,0.3752,0.3749,0,0.305,0.3081,0.312,0.3153,0.3192,0.3268,0.336,0.3418,0.3603,0.3684,0.3812,0.3898,0.3989,0.3937,0.3927,0.3895,0.3803,0.3879,0.3895,0.3616,0.3392,0.3273,0.3711,0.3716,0.3719,0.3721,0.3723,0.3725,0.296,0.2957,0.2998,0.3023,0.3066,0.3103,0.3109,0.3216,0.3302,0.3376,0.358,0.3617,0.373,0.3699,0.3651,0.3551,0.3515,0.3469,0.3489,0.3349,0.3182,0.3525,0.3447,0.3448,0.345,0.3451,0.3452,0,0.2823,0.2842,0.2867,0.2884,0.2863,0.2948,0.3012,0.2978,0.2982,0.3109,0.3179,0.3279,0.3279,0.3369,0.3355,0.3225,0.3057,0.3182,0.3003,0.2951,0.3339,0.3264,0.3066,0.3066,0.3066,0.3066,0.3066,0.3066,0.2743,0.271,0.2735,0.2672,0.2683,0.2606,0.2605,0.2571,0.2625,0.2637,0.2684,0.2786,0.313,0.3287,0.324,0.3136,0.2942,0.2767,0.2785,0.3173,0.3204,0.3233,0.3163,0.2947,0.2947,0.2266,0.2261,0.2258]},{"header":{"parameterUnit":"m.s-1","parameterCategory":2,"la1":30.2991,"la2":30.254,"lo1":-89.0895,"lo2":-89.0444,"dy":0.0017,"dx":0.0017,"nx":28,"ny":28,"refTime":"2025-03-15T03:00:00:Z","depth":"0","parameterNumber":3,"parameterNumberName":"V-component_of_CURRENTS"},"data":[0,0,0,0,0,0,0,0,0,0,0,0,0,0,0,0,0,0,0,0,0,0,0,0,0,0,0,0,0,0,0,0,0,0,0,0,0,0,0,0,0,0,0,0,0,0,0,0,0,0,0,0,0,0,0,0,0,0,-0.0135,-0.0132,0,0.0025,0.0026,0.0027,0.0043,0.0042,0.0042,0.0041,0.0,-0.0,-0.0001,0,0,0,0,0,0,0,0,0,0,0,0,0,-0.0363,-0.036,-0.0135,-0.0132,-0.0129,0.0025,0.0026,0.0027,0.0043,0.0042,0.0042,0.0041,0.0001,0.0,-0.0001,0,0,0,0,0,0,0,0,0,0,0,0,0,-0.0251,-0.0359,-0.0136,-0.0094,-0.0088,0.0025,0.0026,0.0027,0.0043,0.0042,0.0041,0.0041,0.0001,0.0,-0.0001,0.0012,0,0,-0.0003,-0.0003,0,0,0,0,0,0,0,0,-0.0257,-0.0244,-0.0103,-0.0096,-0.0089,0.0023,-0.0068,0.0016,0.0043,-0.0019,0.0041,0.004,-0.0002,-0.0003,0.0016,0.001,0.0008,-0.0003,-0.0004,-0.0004,-0.0004,0,0,0,0,0,0,0,-0.0265,-0.025,-0.0084,-0.0099,-0.0091,-0.006,-0.0047,-0.0052,-0.002,-0.0013,-0.0009,0.0028,-0.0002,0.0016,0.0014,0.0008,-0.0003,-0.0004,-0.0004,-0.0005,-0.0021,-0.0021,0,0,0,0,0,0,-0.0263,-0.0257,-0.0088,-0.0077,-0.0164,-0.0055,-0.0041,-0.0021,-0.0016,-0.0011,0.0028,0.0028,0.0018,0.0015,0.0013,0.0002,-0.0004,-0.0005,-0.0005,-0.0021,-0.0021,-0.0021,0,0,0,0,0,0,-0.0269,-0.025,-0.0095,-0.0154,-0.013,-0.0049,-0.0028,-0.0017,0.0005,0.0021,0.0019,0.0042,0.0017,0.0014,0.0005,0.0001,-0.0005,-0.0006,-0.0021,-0.0021,-0.0021,-0.0005,0,0,0,0,0,0,-0.0277,-0.0254,-0.026,-0.0154,-0.0126,-0.003,-0.0025,-0.0013,0.0035,0.0035,0.0031,0.0027,0.0016,0.0007,0.0005,-0.0001,-0.0007,-0.0021,-0.0021,-0.0021,-0.0005,-0.0004,-0.0003,0,0,0,0,0,-0.0286,-0.026,-0.0262,-0.0242,-0.0132,-0.0027,-0.0012,0.0035,0.0036,0.0048,0.0041,0.0027,0.0005,0.0007,0.0004,-0.0002,-0.0021,-0.0021,-0.0021,-0.0006,-0.0004,-0.0003,0,0,0,0,0,0,-0.0346,-0.0252,-0.0253,-0.02,-0.0129,-0.0021,0.0012,0.0039,0.0049,0.0044,0.0033,0.0028,0.0018,0.0009,0.001,-0.0006,-0.0012,-0.0012,0.0,0.0002,0.0003,0.0003,-0.0007,0,0,0,0,0,-0.0366,-0.0329,-0.0239,-0.0193,-0.0161,-0.0084,-0.0042,-0.0002,0.0041,0.0046,0.0042,0.0031,0.0019,0.0011,0.0002,-0.0003,-0.002,-0.001,-0.0009,-0.0008,-0.001,-0.0037,-0.0038,-0.0021,-0.0021,-0.0021,0,0,-0.036,-0.0312,-0.0284,-0.0205,-0.0148,-0.0097,-0.0063,0.0019,0.0048,0.0037,0.0048,0.0037,0.002,0.0012,0.0006,0.0001,-0.0021,-0.0008,-0.0007,-0.0009,-0.0037,-0.0039,-0.004,-0.002,-0.0021,-0.0021,0,0,-0.0311,-0.0304,-0.0256,-0.0216,-0.0129,-0.0089,-0.0067,0.0023,0.0039,0.0062,0.0052,0.0039,0.0032,0.0017,0.0008,0.001,-0.0012,0.0007,0.0009,-0.0017,-0.0019,-0.002,-0.0041,-0.0045,0.0004,0.0004,0.0004,0,-0.0315,-0.0258,-0.0221,-0.0178,-0.014,-0.0091,-0.0036,-0.001,0.006,0.0069,0.0061,0.0048,0.0032,0.0018,0.0016,0.0012,-0.0004,0.0006,-0.0016,-0.0018,-0.002,-0.0041,-0.0046,0.0005,0.0005,0.0005,0.0005,0,-0.0236,-0.0208,-0.0169,-0.0124,-0.0087,-0.0023,0.0018,0.004,0.0054,0.0075,0.0073,0.0054,0.0045,0.0034,0.0024,0.0003,-0.0003,-0.0009,-0.0019,-0.0021,-0.0043,-0.0048,0.0006,0.0006,0.0006,0.0006,0,0,-0.0188,-0.0127,-0.0119,-0.0098,-0.0058,0.0001,0.0019,0.0066,0.0091,0.0091,0.0107,0.0073,0.0063,0.0051,0.0034,0.0005,-0.0026,-0.0009,-0.001,-0.0029,-0.0081,-0.0075,-0.0079,-0.0036,-0.0036,-0.0037,-0.0089,0,-0.0136,-0.0055,-0.0048,0.0016,0.0062,0.0068,0.0088,0.0117,0.0127,0.0141,0.0103,0.0106,0.0068,0.007,0.003,-0.0001,-0.0038,-0.0011,-0.0077,-0.0078,-0.0073,-0.0085,-0.0056,-0.0099,-0.0094,-0.0095,-0.0095,0,-0.0068,-0.0025,0.0046,0.0091,0.0111,0.0135,0.0173,0.0199,0.0198,0.0206,0.0178,0.0155,0.0111,0.0082,-0.0002,0.0019,-0.0034,-0.0071,-0.0074,-0.0078,-0.0081,-0.0097,-0.0108,-0.0269,-0.0103,-0.0103,-0.0102,0,-0.003,0.0038,0.0094,0.0106,0.0159,0.0181,0.02,0.0217,0.0259,0.024,0.0263,0.0193,0.0185,0.0094,0.0016,0.0006,-0.0073,-0.0094,-0.0145,-0.0145,-0.0138,-0.0136,-0.0313,-0.0166,-0.0166,-0.0166,-0.0166,0,0.002,0.0066,0.0115,0.0144,0.0216,0.0221,0.0286,0.0298,0.0322,0.0376,0.0295,0.033,0.0188,0.0131,0.0032,-0.0063,-0.0064,-0.0149,-0.016,-0.0131,-0.0127,-0.0281,-0.038,-0.0168,-0.0167,-0.0167,-0.0167,0,0.0062,0.009,0.0162,0.0217,0.0241,0.0288,0.0361,0.0413,0.0413,0.0479,0.0478,0.0436,0.0368,0.0225,0.0096,-0.0017,-0.021,-0.0158,-0.0111,-0.0117,-0.0322,-0.042,-0.0597,-0.0678,-0.0234,-0.0234,-0.0234,0,0.0091,0.0133,0.0218,0.0272,0.0299,0.037,0.0433,0.0464,0.053,0.0567,0.0616,0.0557,0.058,0.0375,0.0151,-0.0038,-0.0198,-0.0162,-0.0185,-0.0338,-0.0457,-0.0519,-0.058,-0.0171,-0.0171,-0.017,-0.017,0,0.0142,0.0169,0.0227,0.0347,0.0422,0.0519,0.0605,0.0687,0.0731,0.0809,0.0909,0.0925,0.0708,0.0542,0.0235,0.0087,-0.0282,-0.0161,-0.0337,-0.0442,-0.0505,-0.0585,-0.0134,-0.0167,-0.0168,-0.0168,-0.0168,-0.0168,0.0174,0.0229,0.0313,0.0433,0.0532,0.0673,0.0787,0.0897,0.1051,0.1195,0.1162,0.1242,0.0903,0.0512,0.0244,-0.0235,-0.0258,-0.0369,-0.048,-0.0532,-0.0608,-0.0149,-0.0183,-0.0184,-0.0184,-0.0184,-0.0185,0,0.0234,0.0299,0.0401,0.0553,0.0692,0.073,0.0918,0.1053,0.1281,0.1405,0.1519,0.1437,0.1023,0.0553,-0.0094,-0.0469,-0.062,-0.0691,-0.0792,-0.0843,-0.0444,-0.0438,-0.0508,-0.0507,-0.0507,-0.0507,-0.0507,-0.0507,0.0269,0.0376,0.0439,0.0676,0.0793,0.1006,0.1139,0.1339,0.1494,0.173,0.1818,0.1844,0.1533,0.0263,-0.0569,-0.0785,-0.1084,-0.115,-0.1307,-0.1054,-0.1032,-0.1012,-0.1031,-0.1224,-0.1225,-0.1638,-0.1642,-0.1646]}],[{"header":{"parameterUnit":"m.s-1","parameterCategory":2,"la1":30.2991,"la2":30.254,"lo1":-89.0895,"lo2":-89.0444,"dy":0.0017,"dx":0.0017,"nx":28,"ny":28,"refTime":"2025-03-15T03:00:00:Z","depth":"2","parameterNumber":2,"parameterNumberName":"U-component_of_CURRENTS"},"data":[0,0,0,0,0,0,0,0,0,0,0,0,0,0,0,0,0,0,0,0,0,0,0,0,0,0,0,0,0,0,0,0,0,0,0,0,0,0,0,0,0,0,0,0,0,0,0,0,0,0,0,0,0,0,0,0,0,0,0.2764,0.2764,0,0.2752,0.2751,0.2751,0.2697,0.2696,0.2695,0.2694,0.2672,0.2673,0.2673,0,0,0,0,0,0,0,0,0,0,0,0,0,0.2724,0.2725,0.2764,0.2764,0.2764,0.2752,0.2751,0.2751,0.2697,0.2696,0.2695,0.2693,0.2672,0.2673,0.2673,0,0,0,0,0,0,0,0,0,0,0,0,0,0.2728,0.2725,0.2764,0.2737,0.2734,0.2752,0.2751,0.2751,0.2698,0.2696,0.2694,0.2693,0.2672,0.2673,0.2673,0.271,0,0,0.2675,0.2676,0,0,0,0,0,0,0,0,0.2728,0.2729,0.2741,0.2739,0.2736,0.2726,0.273,0.2737,0.2698,0.271,0.2694,0.2692,0.2692,0.2691,0.269,0.2709,0.2708,0.2675,0.2676,0.2676,0.2676,0,0,0,0,0,0,0,0.2727,0.2729,0.2757,0.2741,0.2738,0.272,0.2719,0.2731,0.2708,0.2708,0.2705,0.2707,0.269,0.2689,0.2689,0.2708,0.2675,0.2676,0.2676,0.2677,0.2813,0.2816,0,0,0,0,0,0,0.2736,0.2729,0.2757,0.2757,0.273,0.2722,0.2721,0.2729,0.2708,0.2704,0.2709,0.2705,0.2689,0.2688,0.2688,0.2788,0.2676,0.2677,0.2677,0.281,0.2814,0.2817,0,0,0,0,0,0,0.2735,0.2739,0.2758,0.2744,0.2745,0.2725,0.2735,0.273,0.2751,0.2709,0.2704,0.2737,0.2687,0.2687,0.2733,0.2784,0.2677,0.2678,0.2806,0.2811,0.2815,0.2951,0,0,0,0,0,0,0.2734,0.2739,0.2794,0.2745,0.2746,0.2822,0.2737,0.2731,0.2754,0.275,0.2732,0.2727,0.2686,0.2733,0.2734,0.2783,0.2678,0.2802,0.2808,0.2814,0.2942,0.296,0.2975,0,0,0,0,0,0.2733,0.2826,0.2797,0.2802,0.2807,0.2826,0.2828,0.2804,0.2758,0.2808,0.2778,0.2728,0.2771,0.2736,0.2737,0.2787,0.2799,0.2806,0.2813,0.2935,0.2956,0.2974,0,0,0,0,0,0,0.2856,0.2828,0.2795,0.2879,0.2869,0.2818,0.2874,0.2831,0.2845,0.2837,0.2775,0.2771,0.2829,0.2801,0.2764,0.2847,0.2776,0.2783,0.2868,0.2888,0.2904,0.2887,0.2679,0,0,0,0,0,0.2902,0.2948,0.2908,0.2976,0.2977,0.2923,0.2938,0.2907,0.2891,0.2894,0.2865,0.2848,0.2859,0.2867,0.2873,0.2926,0.2904,0.2959,0.2975,0.2989,0.2979,0.3009,0.3026,0.2841,0.2841,0.2841,0,0,0.296,0.2957,0.2982,0.3004,0.2985,0.2998,0.293,0.2963,0.2964,0.2893,0.2916,0.2912,0.2889,0.2941,0.2964,0.2924,0.3038,0.2998,0.301,0.2991,0.3018,0.3036,0.3052,0.2846,0.2845,0.2844,0,0,0.3051,0.3098,0.313,0.3145,0.3139,0.3108,0.3123,0.3083,0.3072,0.3103,0.3042,0.3069,0.3085,0.3067,0.3061,0.3176,0.3127,0.3189,0.3253,0.3284,0.3299,0.3311,0.3336,0.3349,0.3192,0.3193,0.3193,0,0.3121,0.3143,0.3153,0.3183,0.32,0.3154,0.3174,0.3173,0.3151,0.3137,0.3137,0.3147,0.3138,0.3166,0.3207,0.3209,0.3219,0.3178,0.3304,0.3315,0.3326,0.3347,0.336,0.32,0.3199,0.3198,0.3198,0,0.3182,0.3229,0.3265,0.3264,0.3306,0.3336,0.3312,0.3322,0.33,0.3273,0.3314,0.3316,0.3313,0.3332,0.3307,0.3375,0.3357,0.3324,0.3249,0.3352,0.3369,0.338,0.3211,0.3208,0.3206,0.3204,0,0,0.3222,0.3286,0.3294,0.3294,0.3348,0.3357,0.3396,0.3384,0.3379,0.3404,0.3416,0.3456,0.3451,0.3445,0.3431,0.346,0.3562,0.3437,0.3435,0.345,0.3642,0.3529,0.3529,0.356,0.3562,0.3564,0.3634,0,0.3237,0.3281,0.3333,0.3379,0.3381,0.341,0.3433,0.3439,0.346,0.3478,0.3486,0.3521,0.3498,0.3524,0.3556,0.3568,0.3593,0.3546,0.3546,0.3545,0.3424,0.3539,0.3267,0.3297,0.3644,0.3646,0.3647,0,0.322,0.3258,0.3294,0.3358,0.3368,0.3412,0.3436,0.3462,0.3496,0.3521,0.3574,0.3597,0.3663,0.3631,0.3699,0.3679,0.367,0.3667,0.3669,0.3512,0.3452,0.3245,0.3303,0.3664,0.3663,0.3661,0.366,0,0.3122,0.3216,0.3233,0.3266,0.3342,0.3369,0.3409,0.3455,0.3483,0.3566,0.3623,0.3689,0.375,0.3769,0.3786,0.3764,0.3846,0.3806,0.3683,0.3675,0.3412,0.3376,0.3828,0.3828,0.3828,0.3828,0.3828,0,0.3069,0.3083,0.3188,0.3202,0.3225,0.3315,0.3367,0.3397,0.3498,0.353,0.3646,0.3697,0.3794,0.3851,0.3834,0.3807,0.3888,0.3709,0.3691,0.3455,0.3424,0.37,0.3684,0.383,0.383,0.3829,0.3829,0,0.2928,0.2993,0.302,0.3133,0.3168,0.3182,0.3343,0.3368,0.3487,0.3554,0.3596,0.3747,0.3821,0.3883,0.3928,0.3863,0.3843,0.379,0.3509,0.3455,0.3641,0.3632,0.3686,0.3683,0.368,0.3678,0.3676,0,0.2856,0.2846,0.296,0.2978,0.3039,0.3114,0.3148,0.3305,0.336,0.3541,0.3545,0.3701,0.3726,0.3795,0.374,0.371,0.3777,0.3415,0.3302,0.3652,0.363,0.3625,0.3619,0.3027,0.302,0.3014,0.301,0,0.2728,0.2764,0.2805,0.2842,0.2892,0.2961,0.3054,0.3102,0.3256,0.3318,0.3382,0.3441,0.3544,0.3414,0.3426,0.3356,0.341,0.3292,0.3747,0.3097,0.3033,0.301,0.3026,0.2958,0.2963,0.2967,0.2969,0.2972,0.2639,0.2634,0.2678,0.2708,0.2752,0.278,0.2788,0.2884,0.2921,0.2968,0.3113,0.3088,0.3166,0.3033,0.2934,0.2877,0.31,0.2951,0.2968,0.2992,0.2895,0.2828,0.2697,0.2701,0.2704,0.2706,0.2709,0,0.251,0.253,0.2547,0.2574,0.255,0.2643,0.2682,0.2639,0.2602,0.2676,0.2691,0.2475,0.2424,0.2507,0.234,0.2334,0.2303,0.2235,0.218,0.2235,0.2283,0.2148,0.1753,0.175,0.1746,0.1744,0,0,0.2439,0.24,0.2417,0.2352,0.2386,0.2316,0.2305,0.2236,0.2234,0.2134,0.2099,0.2281,0.2411,0.2031,0.2005,0.1851,0.2017,0.1772,0.2547,0.2536,0.2579,0.2714,0.257,0,0,0,0,0]},{"header":{"parameterUnit":"m.s-1","parameterCategory":2,"la1":30.2991,"la2":30.254,"lo1":-89.0895,"lo2":-89.0444,"dy":0.0017,"dx":0.0017,"nx":28,"ny":28,"refTime":"2025-03-15T03:00:00:Z","depth":"2","parameterNumber":3,"parameterNumberName":"V-component_of_CURRENTS"},"data":[0,0,0,0,0,0,0,0,0,0,0,0,0,0,0,0,0,0,0,0,0,0,0,0,0,0,0,0,0,0,0,0,0,0,0,0,0,0,0,0,0,0,0,0,0,0,0,0,0,0,0,0,0,0,0,0,0,0,0.0005,0.0007,0,0.0128,0.0128,0.0129,0.0135,0.0135,0.0134,0.0133,0.0096,0.0095,0.0095,0,0,0,0,0,0,0,0,0,0,0,0,0,-0.0148,-0.0147,0.0005,0.0007,0.0009,0.0127,0.0128,0.0129,0.0135,0.0135,0.0134,0.0133,0.0096,0.0095,0.0095,0,0,0,0,0,0,0,0,0,0,0,0,0,-0.0068,-0.0146,0.0004,0.0033,0.0038,0.0127,0.0128,0.0129,0.0136,0.0135,0.0134,0.0133,0.0096,0.0095,0.0095,0.011,0,0,0.0093,0.0092,0,0,0,0,0,0,0,0,-0.0072,-0.0063,0.0027,0.0031,0.0037,0.0123,0.0061,0.0118,0.0136,0.0089,0.0133,0.0132,0.0096,0.0095,0.0111,0.0108,0.0106,0.0093,0.0092,0.0092,0.0092,0,0,0,0,0,0,0,-0.0078,-0.0068,0.0045,0.0029,0.0036,0.0067,0.0075,0.0072,0.0087,0.0093,0.0096,0.0124,0.0096,0.0111,0.0109,0.0106,0.0093,0.0092,0.0092,0.0091,0.0085,0.0085,0,0,0,0,0,0,-0.0078,-0.0073,0.0041,0.0049,-0.0012,0.0071,0.008,0.0089,0.009,0.0094,0.0125,0.0124,0.0113,0.011,0.0108,0.0102,0.0092,0.0091,0.0091,0.0085,0.0085,0.0086,0,0,0,0,0,0,-0.0083,-0.007,0.0036,-0.0001,0.0015,0.0074,0.0085,0.0092,0.0106,0.0118,0.0116,0.0132,0.0112,0.0109,0.0102,0.0101,0.0091,0.0091,0.0085,0.0085,0.0085,0.0103,0,0,0,0,0,0,-0.0088,-0.0073,-0.0098,-0.0002,0.0018,0.0087,0.0087,0.0095,0.0129,0.0129,0.0123,0.0119,0.0111,0.0104,0.0102,0.0099,0.009,0.0085,0.0085,0.0085,0.0103,0.0104,0.0106,0,0,0,0,0,-0.0094,-0.0095,-0.0101,-0.0087,-0.0009,0.0089,0.0101,0.0134,0.013,0.014,0.0133,0.0119,0.0104,0.0104,0.0101,0.0099,0.0084,0.0085,0.0085,0.0102,0.0104,0.0106,0,0,0,0,0,0,-0.0166,-0.009,-0.0095,-0.0076,-0.0007,0.0093,0.0113,0.0136,0.0143,0.0136,0.0126,0.0122,0.0115,0.0107,0.0106,0.0098,0.0091,0.0091,0.0104,0.0106,0.0107,0.012,0.009,0,0,0,0,0,-0.0195,-0.0179,-0.0097,-0.0077,-0.0044,0.0027,0.006,0.0097,0.0137,0.014,0.0137,0.0127,0.0119,0.0112,0.0107,0.0105,0.0089,0.01,0.0102,0.0103,0.0113,0.0087,0.0087,0.0087,0.0087,0.0087,0,0,-0.0202,-0.0168,-0.0154,-0.0092,-0.0037,0.0021,0.0043,0.0117,0.015,0.0133,0.0148,0.0135,0.0121,0.0118,0.0114,0.0108,0.0094,0.0104,0.0105,0.0114,0.0088,0.0088,0.0088,0.0087,0.0087,0.0087,0,0,-0.0168,-0.0187,-0.0146,-0.0108,-0.0026,0.0019,0.0039,0.0128,0.0142,0.0167,0.0157,0.0145,0.0138,0.0131,0.0124,0.0133,0.0106,0.0125,0.0141,0.0116,0.0115,0.0115,0.0089,0.0087,0.0123,0.0123,0.0123,0,-0.0184,-0.0139,-0.0115,-0.007,-0.0032,0.0017,0.0082,0.0106,0.0174,0.0191,0.0168,0.0164,0.0145,0.0147,0.0144,0.0136,0.0116,0.0133,0.0118,0.0117,0.0116,0.009,0.0087,0.0124,0.0124,0.0124,0.0124,0,-0.0109,-0.0093,-0.0056,-0.0003,0.0033,0.0101,0.0149,0.0178,0.0189,0.0212,0.0217,0.0189,0.0185,0.0172,0.0157,0.0148,0.0134,0.0123,0.0112,0.0117,0.0089,0.0086,0.0125,0.0125,0.0125,0.0124,0,0,-0.0075,-0.0015,-0.0008,0.0022,0.0071,0.0132,0.0168,0.0236,0.0266,0.0264,0.0291,0.0256,0.0234,0.0225,0.0198,0.0172,0.0139,0.0144,0.0142,0.0119,0.008,0.007,0.0064,0.0121,0.0121,0.012,0.006,0,-0.0014,0.0073,0.0079,0.0158,0.0217,0.023,0.0266,0.0309,0.0318,0.034,0.0305,0.0303,0.0254,0.0243,0.0208,0.0164,0.0131,0.0157,0.0079,0.0077,0.0067,0.0061,0.0078,0.0025,0.0056,0.0055,0.0055,0,0.0065,0.0108,0.0196,0.0254,0.0281,0.031,0.0372,0.0413,0.0431,0.0433,0.0408,0.037,0.033,0.0283,0.0194,0.021,0.0146,0.0103,0.01,0.0085,0.0061,0.0026,0.0017,0.0048,0.0049,0.0049,0.005,0,0.0114,0.0191,0.0261,0.0275,0.0343,0.0372,0.0407,0.0441,0.0493,0.048,0.0495,0.0427,0.0402,0.031,0.0206,0.0194,0.0112,0.0084,0.0016,0.0014,0.0013,0.0012,0.0021,0.0021,0.0021,0.0022,0.0022,0,0.0182,0.0236,0.0282,0.0313,0.0401,0.0417,0.0492,0.0522,0.0558,0.0628,0.0534,0.0566,0.0406,0.0338,0.023,0.0116,0.0123,0.0021,-0.0001,0.0019,0.0019,0.003,0.0032,0.0019,0.002,0.002,0.0021,0,0.024,0.027,0.0351,0.0406,0.0431,0.049,0.0567,0.0628,0.0636,0.0718,0.0716,0.0667,0.0576,0.0416,0.0275,0.0159,0.0046,0.0005,0.0037,0.002,-0.0046,-0.0043,-0.0091,-0.0092,-0.0093,-0.0094,-0.0094,0,0.028,0.033,0.041,0.0463,0.0486,0.0564,0.0636,0.0678,0.0754,0.0807,0.0871,0.0783,0.0777,0.0544,0.0309,0.0097,0.0069,-0.0037,-0.0061,-0.0041,-0.0058,-0.0053,-0.0049,-0.0062,-0.0062,-0.0062,-0.0062,0,0.0349,0.0372,0.0431,0.0545,0.0619,0.0721,0.0816,0.0899,0.0971,0.1035,0.1134,0.1122,0.0877,0.0664,0.0328,0.0186,-0.0011,-0.0047,-0.0033,-0.0031,-0.0017,-0.0032,-0.0028,-0.0064,-0.0064,-0.0064,-0.0064,-0.0063,0.0387,0.0442,0.0522,0.0636,0.0736,0.088,0.0985,0.1094,0.1246,0.1358,0.1342,0.1321,0.1026,0.0615,0.0322,-0.0012,0.0014,-0.0104,-0.0102,-0.01,-0.0081,-0.0069,-0.0122,-0.0122,-0.0122,-0.0122,-0.0122,0,0.044,0.0503,0.0611,0.0753,0.0888,0.0924,0.1119,0.1229,0.142,0.1491,0.1555,0.1301,0.1028,0.0679,0.0191,-0.0087,-0.0117,-0.0185,-0.0161,-0.0156,-0.0153,-0.0136,-0.0192,-0.0194,-0.0195,-0.0196,0,0,0.0468,0.0576,0.0642,0.0867,0.0969,0.1163,0.1288,0.1442,0.1542,0.1638,0.1617,0.1542,0.1134,0.0768,0.0374,0.0087,0.0029,0.0028,0.0118,0.0198,0.0204,-0.0071,-0.0035,0,0,0,0,0]}],[{"header":{"parameterUnit":"m.s-1","parameterCategory":2,"la1":30.2991,"la2":30.254,"lo1":-89.0895,"lo2":-89.0444,"dy":0.0017,"dx":0.0017,"nx":28,"ny":28,"refTime":"2025-03-15T03:00:00:Z","depth":"4","parameterNumber":2,"parameterNumberName":"U-component_of_CURRENTS"},"data":[0,0,0,0,0,0,0,0,0,0,0,0,0,0,0,0,0,0,0,0,0,0,0,0,0,0,0,0,0,0,0,0,0,0,0,0,0,0,0,0,0,0,0,0,0,0,0,0,0,0,0,0,0,0,0,0,0,0,0.1164,0.1165,0,0.1235,0.1236,0.1237,0.1272,0.1272,0.1272,0.1272,0.1376,0.1379,0.1382,0,0,0,0,0,0,0,0,0,0,0,0,0,0.0906,0.0911,0.1164,0.1165,0.1166,0.1235,0.1236,0.1237,0.1272,0.1272,0.1272,0.1273,0.1375,0.1379,0.1382,0,0,0,0,0,0,0,0,0,0,0,0,0,0.1002,0.0913,0.1164,0.1192,0.1195,0.1235,0.1236,0.1237,0.1272,0.1272,0.1272,0.1273,0.1374,0.1378,0.1382,0.1406,0,0,0.1395,0.1397,0,0,0,0,0,0,0,0,0.0996,0.1011,0.1187,0.119,0.1194,0.1245,0.1183,0.1295,0.1272,0.1243,0.1272,0.1273,0.1336,0.1343,0.1355,0.1411,0.1416,0.1395,0.1398,0.1399,0.1401,0,0,0,0,0,0,0,0.099,0.1007,0.1192,0.1188,0.1192,0.1148,0.1164,0.1203,0.1288,0.1245,0.1248,0.1256,0.1338,0.1351,0.1358,0.1417,0.1395,0.1399,0.1401,0.1403,0.1582,0.1584,0,0,0,0,0,0,0.0991,0.1003,0.119,0.1194,0.1093,0.1154,0.1171,0.1228,0.1287,0.1296,0.1256,0.1258,0.1344,0.1353,0.1362,0.1464,0.1399,0.1403,0.1406,0.158,0.1583,0.1585,0,0,0,0,0,0,0.0986,0.1009,0.1187,0.1096,0.1116,0.1159,0.1223,0.123,0.1267,0.1295,0.1305,0.1289,0.1345,0.1356,0.1424,0.1465,0.1405,0.1409,0.1577,0.1581,0.1584,0.1623,0,0,0,0,0,0,0.0979,0.1008,0.1014,0.1099,0.1121,0.1228,0.1223,0.1231,0.127,0.1274,0.1326,0.1334,0.1346,0.1418,0.1428,0.147,0.1412,0.1574,0.1579,0.1583,0.1618,0.1627,0.1634,0,0,0,0,0,0.097,0.0915,0.1015,0.1035,0.1143,0.1229,0.1237,0.1264,0.1272,0.1297,0.1335,0.1334,0.1452,0.1423,0.1434,0.1478,0.1572,0.1578,0.1583,0.1615,0.1625,0.1634,0,0,0,0,0,0,0.0833,0.0919,0.1027,0.1021,0.1157,0.1236,0.1256,0.128,0.1329,0.1359,0.1362,0.1374,0.1443,0.1463,0.143,0.1545,0.1513,0.1521,0.1534,0.1544,0.1552,0.1552,0.1415,0,0,0,0,0,0.0817,0.0817,0.0961,0.1,0.1079,0.1196,0.1222,0.1279,0.1342,0.1365,0.1404,0.1449,0.147,0.1508,0.1542,0.1613,0.162,0.1651,0.1659,0.1665,0.1675,0.1709,0.172,0.1602,0.1602,0.1602,0,0,0.0816,0.0844,0.0871,0.0972,0.111,0.1191,0.1216,0.1318,0.1357,0.1372,0.1446,0.1479,0.1492,0.1562,0.1597,0.1589,0.1707,0.1672,0.1677,0.1684,0.1715,0.1726,0.1736,0.1606,0.1605,0.1605,0,0,0.0816,0.0858,0.09,0.0946,0.1107,0.1193,0.1232,0.1373,0.1418,0.1502,0.1507,0.157,0.1631,0.1649,0.1654,0.1732,0.1735,0.1755,0.1811,0.1843,0.1852,0.1861,0.1892,0.1902,0.1773,0.1773,0.1773,0,0.083,0.0879,0.0935,0.0961,0.0999,0.1201,0.1282,0.1346,0.1471,0.1522,0.1541,0.164,0.1662,0.1702,0.1736,0.1747,0.1771,0.1766,0.1851,0.1859,0.1867,0.1897,0.1908,0.1775,0.1775,0.1775,0.1775,0,0.0845,0.0889,0.0925,0.1044,0.1084,0.1187,0.1307,0.1421,0.1522,0.1572,0.1675,0.1718,0.1779,0.1795,0.179,0.1862,0.1862,0.1841,0.1818,0.1881,0.1909,0.192,0.1779,0.1778,0.1777,0.1777,0,0,0.0901,0.0947,0.0953,0.1023,0.1117,0.1182,0.1296,0.1462,0.1545,0.1659,0.1728,0.1791,0.1851,0.1863,0.1881,0.1922,0.1998,0.1925,0.1925,0.1941,0.2084,0.1969,0.1969,0.1997,0.1999,0.2001,0.2084,0,0.0978,0.1008,0.0981,0.1087,0.1179,0.1272,0.1336,0.1457,0.1592,0.1701,0.1774,0.1843,0.1857,0.1916,0.1957,0.1981,0.2029,0.1979,0.2035,0.2036,0.1914,0.1978,0.2007,0.2092,0.2094,0.2096,0.2097,0,0.1009,0.1018,0.1104,0.1155,0.1206,0.1255,0.1432,0.1505,0.1665,0.1756,0.1864,0.1909,0.1997,0.1994,0.2085,0.2059,0.2091,0.2104,0.2106,0.1991,0.194,0.2018,0.2117,0.2115,0.2114,0.2112,0.2111,0,0.1021,0.1089,0.1165,0.1153,0.1251,0.132,0.1408,0.1551,0.1634,0.1811,0.1896,0.1984,0.2056,0.2105,0.2159,0.2139,0.224,0.2203,0.2128,0.212,0.2179,0.2169,0.2272,0.2271,0.2271,0.2271,0.2271,0,0.103,0.1079,0.1189,0.1184,0.1289,0.1333,0.1461,0.1575,0.1718,0.1797,0.1926,0.1996,0.2094,0.2157,0.2186,0.2195,0.227,0.215,0.2136,0.2196,0.2187,0.2187,0.2176,0.2274,0.2273,0.2273,0.2272,0,0.1009,0.1085,0.1154,0.1252,0.1299,0.1358,0.1473,0.155,0.1718,0.1835,0.1893,0.2036,0.2126,0.2201,0.2277,0.2222,0.2241,0.2228,0.2307,0.2294,0.2093,0.2084,0.214,0.2137,0.2134,0.2132,0.213,0,0.0982,0.1043,0.1155,0.1202,0.1251,0.1355,0.1419,0.1561,0.1628,0.1833,0.1862,0.2014,0.2095,0.2119,0.2195,0.2247,0.2227,0.2213,0.2135,0.2101,0.2082,0.2077,0.2072,0.2125,0.2125,0.2124,0.2123,0,0.0923,0.0999,0.1027,0.1138,0.1214,0.1276,0.1374,0.1417,0.1578,0.173,0.182,0.1888,0.1984,0.2042,0.2111,0.2133,0.2199,0.2183,0.2187,0.2114,0.2083,0.2066,0.2064,0.2113,0.2115,0.2116,0.2116,0,0.0867,0.087,0.095,0.1039,0.1124,0.1171,0.1235,0.1314,0.1403,0.1631,0.1644,0.1818,0.195,0.1984,0.2034,0.2064,0.2032,0.1948,0.1965,0.1976,0.1884,0.1818,0.1768,0,0,0,0,0,0.0808,0.0803,0.085,0.0919,0.0999,0.107,0.1186,0.1258,0.1413,0.1442,0.1554,0.1647,0.175,0.1826,0.1828,0.1952,0.2025,0.1942,0.1932,0.2059,0.207,0.1977,0,0,0,0,0,0,0.0763,0.0784,0.0797,0.0814,0.0859,0.0929,0.1007,0.1121,0.1151,0.133,0.1399,0.1542,0.1668,0.1748,0.1798,0.1824,0.1782,0.2056,0.2051,0.2053,0.2063,0.2072,0.198,0,0,0,0,0]},{"header":{"parameterUnit":"m.s-1","parameterCategory":2,"la1":30.2991,"la2":30.254,"lo1":-89.0895,"lo2":-89.0444,"dy":0.0017,"dx":0.0017,"nx":28,"ny":28,"refTime":"2025-03-15T03:00:00:Z","depth":"4","parameterNumber":3,"parameterNumberName":"V-component_of_CURRENTS"},"data":[0,0,0,0,0,0,0,0,0,0,0,0,0,0,0,0,0,0,0,0,0,0,0,0,0,0,0,0,0,0,0,0,0,0,0,0,0,0,0,0,0,0,0,0,0,0,0,0,0,0,0,0,0,0,0,0,0,0,0.032,0.032,0,0.0299,0.0299,0.0299,0.0311,0.0311,0.0311,0.0311,0.033,0.033,0.033,0,0,0,0,0,0,0,0,0,0,0,0,0,0.0466,0.0463,0.032,0.032,0.0319,0.0299,0.0299,0.0299,0.0311,0.0311,0.0311,0.0312,0.033,0.033,0.0331,0,0,0,0,0,0,0,0,0,0,0,0,0,0.0423,0.0462,0.032,0.032,0.0319,0.0299,0.0299,0.0299,0.0311,0.0311,0.0311,0.0312,0.033,0.033,0.0331,0.0327,0,0,0.0332,0.0332,0,0,0,0,0,0,0,0,0.0426,0.0418,0.032,0.032,0.0319,0.0304,0.0357,0.0309,0.0311,0.0318,0.0311,0.0312,0.0322,0.0323,0.0324,0.0327,0.0328,0.0332,0.0332,0.0332,0.0332,0,0,0,0,0,0,0,0.0429,0.042,0.0316,0.032,0.0319,0.0352,0.0346,0.0349,0.0322,0.0317,0.0317,0.0308,0.0323,0.0323,0.0324,0.0328,0.0332,0.0332,0.0333,0.0333,0.0343,0.0343,0,0,0,0,0,0,0.0417,0.0422,0.0317,0.0315,0.037,0.0349,0.0342,0.0312,0.0321,0.0322,0.0308,0.0309,0.0322,0.0324,0.0325,0.0349,0.0332,0.0333,0.0333,0.0343,0.0343,0.0343,0,0,0,0,0,0,0.042,0.0407,0.0317,0.0367,0.0357,0.0345,0.0312,0.0311,0.0318,0.0313,0.0315,0.0315,0.0323,0.0324,0.0334,0.0349,0.0333,0.0333,0.0343,0.0343,0.0343,0.0379,0,0,0,0,0,0,0.0424,0.0408,0.0405,0.0365,0.0353,0.0319,0.0311,0.031,0.0309,0.031,0.032,0.0321,0.0323,0.0333,0.0334,0.0349,0.0334,0.0343,0.0343,0.0343,0.0377,0.038,0.0382,0,0,0,0,0,0.0429,0.0432,0.0404,0.0393,0.0341,0.0319,0.0318,0.0314,0.0309,0.032,0.032,0.0321,0.0334,0.0334,0.0335,0.035,0.0343,0.0343,0.0343,0.0376,0.0379,0.0382,0,0,0,0,0,0,0.0482,0.0431,0.0401,0.0382,0.0352,0.032,0.0331,0.0317,0.0324,0.0331,0.0323,0.0326,0.0338,0.0335,0.0334,0.035,0.0338,0.0338,0.0363,0.0366,0.0368,0.0386,0.0334,0,0,0,0,0,0.0488,0.0492,0.0423,0.0415,0.039,0.0356,0.0353,0.0345,0.0334,0.0338,0.0334,0.0334,0.0337,0.0344,0.0346,0.0357,0.0339,0.0365,0.0367,0.0369,0.0384,0.0359,0.0361,0.0343,0.0343,0.0343,0,0,0.0505,0.0482,0.048,0.0431,0.0402,0.0391,0.0357,0.0352,0.0368,0.0339,0.0363,0.0343,0.034,0.0354,0.0359,0.0356,0.0362,0.037,0.0372,0.0385,0.036,0.0362,0.0363,0.0343,0.0343,0.0343,0,0,0.0539,0.0508,0.0509,0.0491,0.0455,0.0438,0.0434,0.0393,0.0398,0.0403,0.0387,0.0375,0.0379,0.0378,0.0379,0.0393,0.0372,0.0388,0.0422,0.0398,0.04,0.0401,0.0368,0.0366,0.0393,0.0394,0.0394,0,0.055,0.0543,0.051,0.0502,0.0507,0.0457,0.0461,0.0456,0.0436,0.0438,0.0421,0.0403,0.0395,0.041,0.0412,0.0402,0.0377,0.0415,0.0402,0.0403,0.0404,0.0369,0.0367,0.0395,0.0395,0.0395,0.0395,0,0.0569,0.0575,0.0575,0.0555,0.0561,0.0563,0.0536,0.054,0.0529,0.0509,0.0506,0.0478,0.0467,0.0455,0.0441,0.0442,0.0418,0.0405,0.0398,0.0408,0.0371,0.0367,0.0398,0.0397,0.0397,0.0396,0,0,0.0558,0.058,0.0587,0.0599,0.0597,0.0598,0.0628,0.0623,0.0635,0.0602,0.061,0.0588,0.0545,0.0542,0.051,0.0486,0.0457,0.045,0.0447,0.0422,0.0393,0.0344,0.0335,0.0437,0.0436,0.0436,0.036,0,0.0572,0.0605,0.0621,0.0668,0.0671,0.0673,0.0707,0.0712,0.07,0.0692,0.0647,0.064,0.0588,0.0578,0.0543,0.0483,0.0452,0.0479,0.0383,0.038,0.0341,0.0331,0.0436,0.0358,0.0357,0.0356,0.0356,0,0.0576,0.0609,0.0658,0.0728,0.0727,0.0763,0.0811,0.0836,0.0819,0.0799,0.0767,0.0722,0.0685,0.0637,0.0539,0.0556,0.0482,0.0426,0.0421,0.0366,0.0326,0.0348,0.0349,0.035,0.035,0.0351,0.0351,0,0.0597,0.0643,0.0703,0.0719,0.077,0.0813,0.0854,0.0868,0.0897,0.087,0.0865,0.0798,0.0773,0.0677,0.0552,0.0547,0.0432,0.0412,0.0298,0.0294,0.0346,0.0346,0.0346,0.0346,0.0346,0.0346,0.0347,0,0.0615,0.0661,0.0717,0.0748,0.0823,0.0856,0.0936,0.0941,0.0967,0.0989,0.0925,0.0911,0.0781,0.0695,0.0575,0.0421,0.0448,0.0305,0.0273,0.036,0.0362,0.0342,0.0343,0.0343,0.0344,0.0345,0.0345,0,0.063,0.0664,0.0724,0.08,0.0834,0.0891,0.1005,0.105,0.1059,0.1086,0.1084,0.1002,0.0877,0.0735,0.0572,0.0456,0.0315,0.0255,0.0355,0.0329,0.0186,0.019,0.0125,0.0122,0.012,0.0119,0.0117,0,0.0644,0.0671,0.0764,0.0813,0.0857,0.0954,0.1028,0.1085,0.1131,0.1131,0.1137,0.1041,0.0958,0.0693,0.0536,0.0302,0.0264,0.0188,0.0188,0.0189,0.0165,0.0171,0.0177,0.0114,0.0114,0.0113,0.0113,0,0.066,0.0688,0.0751,0.085,0.0936,0.103,0.1135,0.1168,0.1218,0.1228,0.1161,0.1024,0.0876,0.0672,0.049,0.0323,0.0236,0.0167,0.017,0.0169,0.0176,0.0155,0.0163,0.0106,0.0107,0.0108,0.0108,0,0.0676,0.0715,0.0795,0.0883,0.0988,0.1072,0.1131,0.1185,0.1229,0.1216,0.1188,0.1029,0.0945,0.0682,0.0515,0.0342,0.0293,0.023,0.0229,0.0235,0.0281,0.0307,0.0252,0,0,0,0,0,0.0678,0.0728,0.082,0.0916,0.1024,0.108,0.1186,0.1233,0.1272,0.1222,0.1206,0.1059,0.0792,0.0688,0.0505,0.0475,0.0267,0.0253,0.0196,0.0068,0.0076,0.0107,0,0,0,0,0,0,0.0677,0.0762,0.0815,0.0933,0.0997,0.1115,0.1178,0.1206,0.1182,0.1182,0.1049,0.0987,0.0741,0.0886,0.0489,0.0441,0.0373,0.014,0.0135,0.0064,0.0071,0.0077,0.0112,0,0,0,0,0]}]]